Weather History for Marietta, GA

Change the Weather History Date:

Tuesday, February 5, 2013

  Actual Average Record
Temperature  
Mean Temperature 46 °F -  
Max Temperature 59 °F 51 °F 69 °F (2008)
Min Temperature 33 °F 34 °F 15 °F (2009)
Degree Days  
Heating Degree Days 19    
Moisture  
Dew Point 41 °F    
Average Humidity 75    
Maximum Humidity 96    
Minimum Humidity 58    
Precipitation  
Precipitation 0.00 in - - ()
Sea Level Pressure  
Sea Level Pressure 30.02 in    
Wind  
Wind Speed 3 mph (WNW)    
Max Wind Speed 10 mph    
Max Gust Speed -    
Visibility 10 miles    
Events Rain    
Averages and records for this station are not official NWS values.
T = Trace of Precipitation, MM = Missing Value Source: NWS Daily Summary

Daily Weather History Graph

Daily Weather History Graph

Search for Another Location

Airport:

Trip Planner

Search our weather history database for the weather conditions in past years. The results will help you decide how hot, cold, wet, or windy it might be!

Date:

Astronomy

Feb. 05, 2013 Rise Set
Actual Time 7:31 AM EST 6:12 PM EST
Civil Twilight 7:05 AM EST 6:38 PM EST
Nautical Twilight 6:35 AM EST 7:08 PM EST
Astronomical Twilight 6:06 AM EST 7:37 PM EST
Moon 3:07 AM EST (2/5) 1:34 PM EST (2/5)
Length of Visible Light 11h 33m
Length of Day
10h 41m
Waning Crescent, 27% of the Moon is Illuminated
Feb 5
Waning Crescent
Feb 10
New
Feb 17
First Quarter
Feb 25
Full
Mar 4
Last Quarter

Hourly Weather History & Observations

Time (EST) Temp. Windchill Dew Point Humidity Pressure Visibility Wind Dir Wind Speed Gust Speed Precip Events Conditions
12:55 AM 35.4 °F - 31.3 °F 85% 30.01 in 10.0 mi Calm Calm - N/A   Clear
1:55 AM 33.4 °F - 30.7 °F 90% 30.01 in 10.0 mi Calm Calm - N/A   Partly Cloudy
2:55 AM 34.7 °F - 31.3 °F 87% 30.00 in 10.0 mi Calm Calm - N/A   Overcast
3:55 AM 35.2 °F - 32.5 °F 90% 29.99 in 10.0 mi Calm Calm - N/A   Overcast
4:55 AM 36.0 °F - 32.7 °F 88% 29.98 in 10.0 mi Calm Calm - N/A   Mostly Cloudy
5:55 AM 37.9 °F - 34.9 °F 89% 29.99 in 10.0 mi Calm Calm - N/A   Overcast
6:55 AM 39.4 °F 37.2 °F 34.3 °F 82% 30.01 in 10.0 mi North 3.5 mph - N/A   Overcast
7:55 AM 40.3 °F - 36.5 °F 86% 30.02 in 10.0 mi Calm Calm - N/A   Overcast
8:55 AM 43.3 °F - 36.5 °F 77% 30.04 in 10.0 mi Calm Calm - N/A   Overcast
9:55 AM 45.9 °F - 36.3 °F 69% 30.04 in 10.0 mi Calm Calm - N/A   Overcast
10:55 AM 51.8 °F - 38.5 °F 60% 30.05 in 10.0 mi West 8.1 mph - N/A   Overcast
11:23 AM 53.6 °F - 39.2 °F 58% 30.06 in 10.0 mi WNW 10.4 mph - N/A   Overcast
11:55 AM 54.0 °F - 41.2 °F 62% 30.05 in 10.0 mi West 8.1 mph - N/A   Overcast
12:29 PM 57.2 °F - 42.8 °F 59% 30.04 in 10.0 mi West 9.2 mph - N/A   Mostly Cloudy
12:55 PM 58.3 °F - 44.1 °F 59% 30.04 in 10.0 mi WNW 10.4 mph - N/A   Overcast
1:49 PM 57.2 °F - 44.6 °F 63% 30.01 in 10.0 mi Variable 5.8 mph - N/A   Overcast
1:55 PM 57.7 °F - 44.2 °F 61% 30.01 in 10.0 mi Variable 5.8 mph - N/A   Overcast
2:53 PM 57.2 °F - 44.6 °F 63% 30.01 in 10.0 mi WNW 6.9 mph - N/A   Overcast
2:55 PM 56.8 °F - 45.0 °F 64% 30.01 in 10.0 mi West 6.9 mph - N/A   Overcast
3:55 PM 58.6 °F - 46.8 °F 65% 30.00 in 10.0 mi West 8.1 mph - N/A   Overcast
4:04 PM 59.0 °F - 46.4 °F 63% 30.00 in 10.0 mi West 8.1 mph - N/A Rain Light Rain
4:13 PM 57.2 °F - 48.2 °F 72% 29.99 in 10.0 mi West 6.9 mph - N/A   Overcast
4:55 PM 58.5 °F - 47.3 °F 66% 29.99 in 10.0 mi West 3.5 mph - 0.00 in   Overcast
5:55 PM 57.6 °F - 47.3 °F 69% 29.99 in 10.0 mi Calm Calm - N/A   Overcast
6:55 PM 55.2 °F - 47.3 °F 75% 30.00 in 10.0 mi Calm Calm - N/A   Overcast
7:55 PM 55.6 °F - 48.4 °F 77% 30.01 in 10.0 mi Calm Calm - N/A   Overcast
8:55 PM 53.4 °F - 48.4 °F 83% 30.02 in 10.0 mi Calm Calm - N/A   Scattered Clouds
9:55 PM 53.1 °F - 49.1 °F 86% 30.04 in 10.0 mi NW 4.6 mph - N/A   Mostly Cloudy
10:55 PM 49.6 °F - 47.7 °F 93% 30.04 in 10.0 mi WNW 4.6 mph - N/A   Partly Cloudy
11:55 PM 47.7 °F - 46.6 °F 96% 30.05 in 10.0 mi West 5.8 mph - N/A   Partly Cloudy